Terminal Aerodrome Forecast
Issued by NWS

Home | Current Version | Previous Version | Text Only | Print | Product List | Glossary On
Versions: 1 2 3 4 5 6 7 8 9 10 11 12 13 14 15 16 17 18 19 20 21 22 23 24 25 26 27 28 29 30 31
000
FTUS45 KREV 211700 CCA
TAFTRK
TAF COR
KTRK 211746Z 2118/2218 29006KT 1/2SM FU HZ VCSH VV003
     FM212100 28009KT 2SM FU HZ SCT020 BKN090
     FM220200 VRB04KT 5SM HZ SCT090=

USA.gov is the U.S. government's official web portal to all federal, state and local government web resources and services.